Weather History for Cumberland, WI

Change the Weather History Date:

Saturday, February 23, 2013

  Actual Average (KRPD) Record (KRPD)
Temperature  
Mean Temperature 26 °F -  
Max Temperature 30 °F 28 °F 44 °F (2002)
Min Temperature 21 °F 12 °F -11 °F (2008)
Degree Days  
Heating Degree Days 40    
Moisture  
Dew Point 21 °F    
Average Humidity 85    
Maximum Humidity 100    
Minimum Humidity 69    
Precipitation  
Precipitation 0.00 in - - ()
Sea Level Pressure  
Sea Level Pressure 29.81 in    
Wind  
Wind Speed 4 mph (West)    
Max Wind Speed 9 mph    
Max Gust Speed -    
Visibility 9 miles    
Events Snow    
Averages and records for this station are not official NWS values.
T = Trace of Precipitation, MM = Missing Value Source: NWS Daily Summary

Daily Weather History Graph

Daily Weather History Graph

Search for Another Location

Airport:

Trip Planner

Search our weather history database for the weather conditions in past years. The results will help you decide how hot, cold, wet, or windy it might be!

Date:

Astronomy

Feb. 23, 2013 Rise Set
Actual Time 6:56 AM CST 5:46 PM CST
Civil Twilight 6:26 AM CST 6:16 PM CST
Nautical Twilight 5:51 AM CST 6:51 PM CST
Astronomical Twilight 5:17 AM CST 7:25 PM CST
Moon 3:54 PM CST (2/23) 5:22 AM CST (2/23)
Length of Visible Light 11h 50m
Length of Day
10h 50m
Waxing Gibbous, 95% of the Moon is Illuminated
Feb 23
Waxing Gibbous
Feb 25
Full
Mar 4
Last Quarter
Mar 11
New
Mar 19
First Quarter

Hourly Weather History & Observations

Time (CST) Temp. Windchill Dew Point Humidity Pressure Visibility Wind Dir Wind Speed Gust Speed Precip Events Conditions
12:15 AM 21.2 °F - 19.4 °F 93% 29.80 in 10.0 mi Calm Calm - N/A   Overcast
12:35 AM 21.2 °F - 21.2 °F 100% 29.79 in 10.0 mi Calm Calm - N/A   Overcast
12:55 AM 21.2 °F - 19.4 °F 93% 29.79 in 10.0 mi Calm Calm - N/A   Overcast
1:15 AM 21.2 °F - 19.4 °F 93% 29.79 in 10.0 mi Calm Calm - N/A   Overcast
1:35 AM 21.2 °F - 19.4 °F 93% 29.79 in 10.0 mi Calm Calm - N/A   Overcast
1:55 AM 21.2 °F 16.4 °F 19.4 °F 93% 29.78 in 10.0 mi West 3.5 mph - N/A   Overcast
2:15 AM 23.0 °F 18.4 °F 21.2 °F 93% 29.78 in 10.0 mi West 3.5 mph - N/A   Overcast
2:35 AM 23.0 °F - 21.2 °F 93% 29.78 in 10.0 mi Calm Calm - N/A   Overcast
2:55 AM 23.0 °F 18.4 °F 21.2 °F 93% 29.78 in 10.0 mi WNW 3.5 mph - N/A   Overcast
3:15 AM 23.0 °F 18.4 °F 21.2 °F 93% 29.77 in 10.0 mi NW 3.5 mph - N/A   Overcast
3:35 AM 23.0 °F 17.0 °F 21.2 °F 93% 29.77 in 10.0 mi WNW 4.6 mph - N/A   Overcast
3:55 AM 23.0 °F 15.8 °F 21.2 °F 93% 29.77 in 10.0 mi WSW 5.8 mph - N/A   Overcast
4:15 AM 23.0 °F 14.7 °F 21.2 °F 93% 29.77 in 10.0 mi West 6.9 mph - N/A   Overcast
4:35 AM 21.2 °F 12.6 °F 21.2 °F 100% 29.77 in 10.0 mi WSW 6.9 mph - N/A   Overcast
4:55 AM 21.2 °F 13.6 °F 19.4 °F 93% 29.77 in 7.0 mi WSW 5.8 mph - N/A Snow Light Snow
5:15 AM 21.2 °F 12.6 °F 19.4 °F 93% 29.77 in 7.0 mi West 6.9 mph - N/A Snow Light Snow
5:35 AM 21.2 °F 12.6 °F 19.4 °F 93% 29.77 in 7.0 mi West 6.9 mph - N/A   Overcast
5:55 AM 21.2 °F 12.6 °F 21.2 °F 100% 29.78 in 7.0 mi WSW 6.9 mph - N/A Snow Light Snow
6:15 AM 21.2 °F 12.6 °F 21.2 °F 100% 29.78 in 5.0 mi West 6.9 mph - N/A Snow Light Snow
6:35 AM 21.2 °F 10.9 °F 21.2 °F 100% 29.78 in 4.0 mi West 9.2 mph - N/A Snow Light Snow
6:55 AM 21.2 °F 11.7 °F 21.2 °F 100% 29.78 in 3.0 mi WNW 8.1 mph - N/A Snow Light Snow
7:15 AM 23.0 °F 13.1 °F 21.2 °F 93% 29.78 in 2.0 mi West 9.2 mph - N/A Snow Light Snow
7:35 AM 23.0 °F 14.7 °F 21.2 °F 93% 29.78 in 2.5 mi WNW 6.9 mph - N/A Snow Light Snow
7:55 AM 23.0 °F 13.9 °F 21.2 °F 93% 29.78 in 4.0 mi West 8.1 mph - N/A   Overcast
8:15 AM 23.0 °F 13.9 °F 21.2 °F 93% 29.78 in 5.0 mi West 8.1 mph - N/A   Overcast
8:35 AM 23.0 °F 14.7 °F 21.2 °F 93% 29.79 in 7.0 mi West 6.9 mph - N/A   Overcast
8:55 AM 23.0 °F 13.9 °F 21.2 °F 93% 29.79 in 7.0 mi West 8.1 mph - N/A   Overcast
9:15 AM 23.0 °F 13.1 °F 21.2 °F 93% 29.80 in 5.0 mi West 9.2 mph - N/A Snow Light Snow
9:35 AM 23.0 °F 13.1 °F 23.0 °F 100% 29.80 in 5.0 mi WNW 9.2 mph - N/A   Overcast
9:55 AM 23.0 °F 14.7 °F 23.0 °F 100% 29.80 in 7.0 mi WNW 6.9 mph - N/A   Overcast
10:15 AM 24.8 °F 19.1 °F 23.0 °F 93% 29.80 in 10.0 mi WNW 4.6 mph - N/A   Overcast
10:35 AM 24.8 °F 17.9 °F 23.0 °F 93% 29.81 in 10.0 mi WNW 5.8 mph - N/A   Overcast
10:55 AM 26.6 °F 20.0 °F 23.0 °F 86% 29.81 in 10.0 mi West 5.8 mph - N/A   Overcast
11:15 AM 26.6 °F 20.0 °F 23.0 °F 86% 29.81 in 10.0 mi WNW 5.8 mph - N/A   Overcast
11:35 AM 26.6 °F 21.2 °F 23.0 °F 86% 29.81 in 10.0 mi West 4.6 mph - N/A   Overcast
11:55 AM 28.4 °F 21.2 °F 23.0 °F 80% 29.80 in 10.0 mi West 6.9 mph - N/A   Overcast
12:15 PM 28.4 °F 21.2 °F 23.0 °F 80% 29.80 in 10.0 mi West 6.9 mph - N/A   Overcast
12:35 PM 28.4 °F 22.2 °F 23.0 °F 80% 29.80 in 10.0 mi West 5.8 mph - N/A   Overcast
12:55 PM 30.2 °F 25.4 °F 23.0 °F 75% 29.80 in 10.0 mi WNW 4.6 mph - N/A   Overcast
1:15 PM 30.2 °F 24.3 °F 23.0 °F 75% 29.80 in 10.0 mi NW 5.8 mph - N/A   Overcast
1:35 PM 30.2 °F 24.3 °F 21.2 °F 69% 29.80 in 10.0 mi WNW 5.8 mph - N/A   Overcast
1:55 PM 30.2 °F 23.4 °F 23.0 °F 75% 29.80 in 10.0 mi West 6.9 mph - N/A   Overcast
2:15 PM 30.2 °F 23.4 °F 23.0 °F 75% 29.80 in 10.0 mi West 6.9 mph - N/A   Overcast
2:35 PM 30.2 °F 23.4 °F 23.0 °F 75% 29.80 in 10.0 mi West 6.9 mph - N/A   Overcast
2:55 PM 30.2 °F 23.4 °F 23.0 °F 75% 29.80 in 10.0 mi West 6.9 mph - N/A   Overcast
3:15 PM 30.2 °F 22.6 °F 23.0 °F 75% 29.80 in 10.0 mi WNW 8.1 mph - N/A   Overcast
3:35 PM 30.2 °F 24.3 °F 23.0 °F 75% 29.80 in 10.0 mi WNW 5.8 mph - N/A   Overcast
3:55 PM 30.2 °F 22.6 °F 23.0 °F 75% 29.81 in 10.0 mi WNW 8.1 mph - N/A   Overcast
4:15 PM 30.2 °F 21.9 °F 23.0 °F 75% 29.81 in 10.0 mi WNW 9.2 mph - N/A   Overcast
4:35 PM 30.2 °F 23.4 °F 23.0 °F 75% 29.82 in 10.0 mi West 6.9 mph - N/A   Overcast
4:55 PM 28.4 °F 23.3 °F 23.0 °F 80% 29.82 in 10.0 mi NW 4.6 mph - N/A   Overcast
5:15 PM 30.2 °F 25.4 °F 21.2 °F 69% 29.82 in 10.0 mi NNW 4.6 mph - N/A   Overcast
5:35 PM 30.2 °F - 21.2 °F 69% 29.83 in 10.0 mi Calm Calm - N/A   Overcast
5:55 PM 28.4 °F - 21.2 °F 74% 29.83 in 10.0 mi Calm Calm - N/A   Overcast
6:15 PM 28.4 °F - 21.2 °F 74% 29.83 in 10.0 mi Calm Calm - N/A   Overcast
6:35 PM 26.6 °F 21.2 °F 19.4 °F 74% 29.83 in 10.0 mi WSW 4.6 mph - N/A   Mostly Cloudy
6:55 PM 26.6 °F 21.2 °F 19.4 °F 74% 29.84 in 10.0 mi West 4.6 mph - N/A   Mostly Cloudy
7:15 PM 26.6 °F 20.0 °F 19.4 °F 74% 29.84 in 10.0 mi West 5.8 mph - N/A   Overcast
7:35 PM 23.0 °F 15.8 °F 17.6 °F 80% 29.84 in 10.0 mi West 5.8 mph - N/A   Mostly Cloudy
7:55 PM 26.6 °F 18.2 °F 19.4 °F 74% 29.85 in 10.0 mi WSW 8.1 mph - N/A   Overcast
8:15 PM 24.8 °F 16.1 °F 19.4 °F 80% 29.85 in 10.0 mi West 8.1 mph - N/A   Overcast
8:35 PM 24.8 °F 16.1 °F 19.4 °F 80% 29.86 in 10.0 mi West 8.1 mph - N/A   Overcast
8:55 PM 26.6 °F 19.1 °F 19.4 °F 74% 29.86 in 10.0 mi WSW 6.9 mph - N/A   Overcast
9:15 PM 26.6 °F 20.0 °F 21.2 °F 80% 29.86 in 10.0 mi WSW 5.8 mph - N/A   Overcast
9:35 PM 26.6 °F 19.1 °F 21.2 °F 80% 29.87 in 10.0 mi WSW 6.9 mph - N/A   Overcast
9:55 PM 26.6 °F 17.5 °F 21.2 °F 80% 29.87 in 7.0 mi WSW 9.2 mph - N/A   Overcast
10:15 PM 26.6 °F 18.2 °F 21.2 °F 80% 29.87 in 7.0 mi WSW 8.1 mph - N/A   Overcast
10:35 PM 26.6 °F 19.1 °F 21.2 °F 80% 29.88 in 7.0 mi WSW 6.9 mph - N/A   Overcast
10:55 PM 26.6 °F 17.5 °F 21.2 °F 80% 29.88 in 7.0 mi WSW 9.2 mph - N/A   Overcast
11:15 PM 26.6 °F 19.1 °F 21.2 °F 80% 29.89 in 7.0 mi West 6.9 mph - N/A   Overcast
11:35 PM 26.6 °F 17.5 °F 21.2 °F 80% 29.89 in 7.0 mi West 9.2 mph - N/A   Overcast
11:55 PM 26.6 °F 17.5 °F 21.2 °F 80% 29.90 in 7.0 mi West 9.2 mph - N/A   Overcast